User: anonymous   Login
Location: Caltech
(34.1382°N, 118.1253°W)
Time: 05:37:06
(UTC-07:00)
Language:

COSMOS 2428 - Orbit

View from above orbital plane
View from above orbital plane
View from above satellite
View from above satellite

Ground track
Ground track

The orbit data is extracted from the following two-line orbital elements,

1 31792U 07029A   18115.10906001  .00000292  00000-0  18401-3 0  9993
2 31792  70.9556 117.7623 0009426 189.2236 170.8713 14.12501243558115
Epoch (UTC): 25 April 2018 02:37:02
Eccentricity: 0.0009426
inclination: 70.9556°
perigee height: 844 km
apogee height: 857 km
right ascension of ascending node: 117.7623°
argument of perigee: 189.2236°
revolutions per day: 14.12501243
mean anomaly at epoch: 170.8713°
orbit number at epoch: 55811

The dashed part of the orbit path shows where the satellite is in the earth's shadow,  

DLR